Iron Station, NC

2:33 PM EDT on September 30, 2016 (GMT -0400)
Lincolnton-Lincoln County Regional

Weather History for KIPJ - April, 2013

Change the Weather History Date:

Monday, April 8, 2013

  Actual Average (KCLT) Record (KCLT)
Temperature  
Mean Temperature 60 °F 58 °F  
Max Temperature 77 °F 70 °F 88 °F (1929)
Min Temperature 44 °F 45 °F 21 °F (2007)
Degree Days  
Heating Degree Days 4 8  
Month to date heating degree days 72  
Since 1 July heating degree days 3204  
Cooling Degree Days 0 1  
Month to date cooling degree days 7  
Year to date cooling degree days 12  
Growing Degree Days 10 (Base 50)    
Moisture  
Dew Point 47 °F    
Average Humidity 62    
Maximum Humidity 100    
Minimum Humidity 32    
Precipitation  
Precipitation 0.00 in 0.10 in 1.33 in (1918)
Month to date precipitation 0.85  
Year to date precipitation 11.59  
Snow  
Snow 0.00 in 0.00 in 3.00 in (1880)
Month to date snowfall 0.1  
Since 1 July snowfall 4.4  
Snow Depth -    
Sea Level Pressure  
Sea Level Pressure 30.12 in    
Wind  
Wind Speed 3 mph (SW)    
Max Wind Speed 16 mph    
Max Gust Speed 25 mph    
Visibility 10 miles    
Events      
T = Trace of Precipitation, MM = Missing Value Source: NWS Daily Summary

Daily Weather History Graph

Daily Weather History Graph

Search for Another Location

Airport or City:

Trip Planner

Search our weather history database for the weather conditions in past years. The results will help you decide how hot, cold, wet, or windy it might be!

Date:

Astronomy

Apr. 08, 2013 Rise Set
Actual Time 7:01 AM EDT 7:52 PM EDT
Civil Twilight 6:35 AM EDT 8:18 PM EDT
Nautical Twilight 6:04 AM EDT 8:48 PM EDT
Astronomical Twilight 5:33 AM EDT 9:20 PM EDT
Moon 5:47 AM EDT (4/8) 6:27 PM EDT (4/8)
Length of Visible Light 13h 42m
Length of Day
12h 50m
Waning Crescent, 3% of the Moon is Illuminated
Apr 8
Waning Crescent
Apr 10
New
Apr 18
First Quarter
Apr 25
Full
May 2
Last Quarter

Hourly Weather History & Observations

Time (EDT) Temp. Windchill Dew Point Humidity Pressure Visibility Wind Dir Wind Speed Gust Speed Precip Events Conditions
12:15 AM 50.0 °F - 44.6 °F 82% 30.11 in 10.0 mi Calm Calm - N/A   Clear
12:35 AM 48.2 °F - 44.6 °F 87% 30.11 in 10.0 mi Calm Calm - N/A   Clear
12:55 AM 46.4 °F - 44.6 °F 93% 30.11 in 10.0 mi Calm Calm - N/A   Clear
1:15 AM 46.4 °F - 44.6 °F 93% 30.11 in 10.0 mi Calm Calm - N/A   Clear
1:35 AM 48.2 °F - 44.6 °F 87% 30.12 in 10.0 mi Calm Calm - N/A   Clear
1:55 AM 46.4 °F - 44.6 °F 93% 30.12 in 10.0 mi Calm Calm - N/A   Clear
2:15 AM 48.2 °F - 44.6 °F 87% 30.12 in 10.0 mi WSW 3.5 mph - N/A   Mostly Cloudy
2:35 AM 53.6 °F - 46.4 °F 77% 30.12 in 10.0 mi WSW 3.5 mph - N/A   Scattered Clouds
2:55 AM 48.2 °F - 44.6 °F 87% 30.11 in 10.0 mi Calm Calm - N/A   Scattered Clouds
3:15 AM 46.4 °F - 44.6 °F 93% 30.11 in 10.0 mi Calm Calm - N/A   Clear
3:35 AM 50.0 °F - 46.4 °F 87% 30.11 in 10.0 mi Calm Calm - N/A   Clear
3:55 AM 46.4 °F - 44.6 °F 93% 30.10 in 10.0 mi Calm Calm - N/A   Clear
4:15 AM 46.4 °F - 44.6 °F 93% 30.11 in 10.0 mi Calm Calm - N/A   Clear
4:35 AM 46.4 °F - 44.6 °F 93% 30.12 in 10.0 mi Calm Calm - N/A   Clear
4:55 AM 46.4 °F - 44.6 °F 93% 30.12 in 10.0 mi Calm Calm - N/A   Clear
5:15 AM 46.4 °F - 44.6 °F 93% 30.13 in 10.0 mi Calm Calm - N/A   Clear
5:35 AM 46.4 °F - 44.6 °F 93% 30.13 in 10.0 mi Calm Calm - N/A   Clear
5:55 AM 44.6 °F 43.1 °F 44.6 °F 100% 30.13 in 10.0 mi WSW 3.5 mph - N/A   Clear
6:15 AM 44.6 °F - 42.8 °F 93% 30.13 in 10.0 mi Calm Calm - N/A   Clear
6:35 AM 44.6 °F - 44.6 °F 100% 30.14 in 10.0 mi Calm Calm - N/A   Clear
6:55 AM 44.6 °F - 42.8 °F 93% 30.14 in 10.0 mi Calm Calm - N/A   Clear
7:15 AM 44.6 °F - 42.8 °F 93% 30.15 in 10.0 mi Calm Calm - N/A   Clear
7:35 AM 44.6 °F - 44.6 °F 100% 30.16 in 10.0 mi Calm Calm - N/A   Clear
7:55 AM 46.4 °F - 44.6 °F 93% 30.16 in 10.0 mi Calm Calm - N/A   Clear
8:15 AM 50.0 °F - 48.2 °F 94% 30.17 in 10.0 mi Calm Calm - N/A   Clear
8:35 AM 51.8 °F - 50.0 °F 94% 30.17 in 10.0 mi Calm Calm - N/A   Clear
8:55 AM 53.6 °F - 50.0 °F 88% 30.17 in 10.0 mi Calm Calm - N/A   Clear
9:15 AM 59.0 °F - 51.8 °F 77% 30.17 in 10.0 mi WSW 5.8 mph - N/A   Clear
9:35 AM 62.6 °F - 51.8 °F 68% 30.16 in 10.0 mi SW 8.1 mph - N/A   Clear
9:55 AM 62.6 °F - 51.8 °F 68% 30.16 in 10.0 mi SW 9.2 mph - N/A   Clear
10:15 AM 64.4 °F - 50.0 °F 59% 30.16 in 10.0 mi SW 10.4 mph - N/A   Clear
10:35 AM 68.0 °F - 51.8 °F 56% 30.16 in 10.0 mi WSW 9.2 mph - N/A   Clear
10:55 AM 69.8 °F - 51.8 °F 53% 30.16 in 10.0 mi SW 8.1 mph 16.1 mph N/A   Clear
11:15 AM 69.8 °F - 51.8 °F 53% 30.16 in 10.0 mi SW 9.2 mph - N/A   Clear
11:35 AM 71.6 °F - 51.8 °F 50% 30.17 in 10.0 mi SW 11.5 mph - N/A   Clear
11:55 AM 71.6 °F - 51.8 °F 50% 30.15 in 10.0 mi SSW 8.1 mph - N/A   Clear
12:15 PM 73.4 °F - 51.8 °F 47% 30.15 in 10.0 mi WSW 4.6 mph - N/A   Clear
12:35 PM 73.4 °F - 51.8 °F 47% 30.14 in 10.0 mi SSW 9.2 mph - N/A   Scattered Clouds
12:55 PM 75.2 °F - 51.8 °F 44% 30.13 in 10.0 mi SW 12.7 mph 19.6 mph N/A   Scattered Clouds
1:15 PM 75.2 °F - 51.8 °F 44% 30.13 in 10.0 mi SW 16.1 mph 25.3 mph N/A   Scattered Clouds
1:35 PM 77.0 °F - 50.0 °F 39% 30.12 in 10.0 mi SW 12.7 mph 19.6 mph N/A   Mostly Cloudy
1:55 PM 77.0 °F - 48.2 °F 36% 30.11 in 10.0 mi SW 10.4 mph 20.7 mph N/A   Overcast
2:15 PM 77.0 °F - 48.2 °F 36% 30.11 in 10.0 mi SW 11.5 mph 20.7 mph N/A   Mostly Cloudy
2:35 PM 77.0 °F - 46.4 °F 34% 30.10 in 10.0 mi SW 11.5 mph 20.7 mph N/A   Mostly Cloudy
2:55 PM 77.0 °F - 46.4 °F 34% 30.10 in 10.0 mi SW 13.8 mph 23.0 mph N/A   Scattered Clouds
3:15 PM 77.0 °F - 46.4 °F 34% 30.09 in 10.0 mi SW 15.0 mph - N/A   Scattered Clouds
3:35 PM 77.0 °F - 46.4 °F 34% 30.08 in 10.0 mi SSW 9.2 mph 17.3 mph N/A   Scattered Clouds
3:55 PM 77.0 °F - 46.4 °F 34% 30.08 in 10.0 mi SSW 12.7 mph 20.7 mph N/A   Scattered Clouds
4:15 PM 77.0 °F - 44.6 °F 32% 30.07 in 10.0 mi SSW 6.9 mph - N/A   Mostly Cloudy
4:35 PM 77.0 °F - 44.6 °F 32% 30.07 in 10.0 mi SSW 8.1 mph 23.0 mph N/A   Mostly Cloudy
4:55 PM 77.0 °F - 44.6 °F 32% 30.07 in 10.0 mi SW 13.8 mph - N/A   Mostly Cloudy
5:15 PM 77.0 °F - 44.6 °F 32% 30.07 in 10.0 mi SW 10.4 mph - N/A   Scattered Clouds
5:35 PM 77.0 °F - 44.6 °F 32% 30.07 in 10.0 mi SW 13.8 mph 20.7 mph N/A   Scattered Clouds
5:55 PM 77.0 °F - 44.6 °F 32% 30.06 in 10.0 mi SSW 8.1 mph - N/A   Scattered Clouds
6:15 PM 77.0 °F - 44.6 °F 32% 30.07 in 10.0 mi SSW 9.2 mph 17.3 mph N/A   Mostly Cloudy
6:35 PM 75.2 °F - 44.6 °F 34% 30.07 in 10.0 mi SSW 8.1 mph - N/A   Mostly Cloudy
6:55 PM 73.4 °F - 44.6 °F 36% 30.07 in 10.0 mi SW 11.5 mph 18.4 mph N/A   Scattered Clouds
7:15 PM 73.4 °F - 44.6 °F 36% 30.08 in 10.0 mi SW 4.6 mph - N/A   Clear
7:35 PM 71.6 °F - 44.6 °F 38% 30.08 in 10.0 mi SW 4.6 mph - N/A   Clear
7:55 PM 71.6 °F - 44.6 °F 38% 30.08 in 10.0 mi SW 4.6 mph - N/A   Clear
8:15 PM 69.8 °F - 44.6 °F 40% 30.08 in 10.0 mi SW 4.6 mph - N/A   Clear
8:35 PM 69.8 °F - 46.4 °F 43% 30.08 in 10.0 mi SW 4.6 mph - N/A   Clear
8:55 PM 69.8 °F - 46.4 °F 43% 30.09 in 10.0 mi WSW 3.5 mph - N/A   Clear
9:15 PM 68.0 °F - 46.4 °F 46% 30.10 in 10.0 mi Calm Calm - N/A   Clear
9:35 PM 64.4 °F - 46.4 °F 52% 30.11 in 10.0 mi SW 3.5 mph - N/A   Clear
9:55 PM 66.2 °F - 46.4 °F 49% 30.11 in 10.0 mi SW 3.5 mph - N/A   Clear
10:15 PM 66.2 °F - 46.4 °F 49% 30.11 in 10.0 mi SW 4.6 mph - N/A   Clear
10:35 PM 66.2 °F - 46.4 °F 49% 30.10 in 10.0 mi SSW 5.8 mph - N/A   Clear
10:55 PM 64.4 °F - 46.4 °F 52% 30.10 in 10.0 mi SW 4.6 mph - N/A   Clear
11:15 PM 64.4 °F - 46.4 °F 52% 30.10 in 10.0 mi WSW 3.5 mph - N/A   Clear
11:35 PM 64.4 °F - 46.4 °F 52% 30.10 in 10.0 mi SW 4.6 mph - N/A   Clear
11:55 PM 62.6 °F - 46.4 °F 55% 30.10 in 10.0 mi Calm Calm - N/A   Clear